owner,sensor,date,latitude,longitude,vertical_datum,direction_of_sea_water_velocity,sea_water_speed,upward_sea_water_velocity,qcFlag 
TABS,ioos:station:wmo:42045:1,2006-05-01T00:00:00Z,26.2168,-96.4998,2.0,65.26158788,9.821328831,-99999.0,'11133222,11111222,99999999' 
TABS,ioos:station:wmo:42045:1,2006-05-01T00:30:00Z,26.2168,-96.4998,2.0,68.33409194,10.99690866,-99999.0,'11111222,11111222,99999999' 
TABS,ioos:station:wmo:42045:1,2006-05-01T01:00:00Z,26.2168,-96.4998,2.0,73.51558536,10.22007828,-99999.0,'11111222,11111222,99999999' 
TABS,ioos:station:wmo:42045:1,2006-05-01T01:30:00Z,26.2168,-96.4998,2.0,61.29810509,5.996832497,-99999.0,'11133222,11111222,99999999' 
TABS,ioos:station:wmo:42045:1,2006-05-01T02:00:00Z,26.2168,-96.4998,2.0,95.73729519,6.402069978,-99999.0,'11133222,11111222,99999999' 
TABS,ioos:station:wmo:42045:1,2006-05-01T02:30:00Z,26.2168,-96.4998,2.0,138.432272,6.495821734,-99999.0,'11133222,11111222,99999999' 
TABS,ioos:station:wmo:42045:1,2006-05-01T03:00:00Z,26.2168,-96.4998,2.0,118.0860609,7.412941387,-99999.0,'11133222,11111222,99999999' 
TABS,ioos:station:wmo:42045:1,2006-05-01T03:30:00Z,26.2168,-96.4998,2.0,132.4655122,8.635149101,-99999.0,'11133222,11111222,99999999' 
TABS,ioos:station:wmo:42045:1,2006-05-01T04:00:00Z,26.2168,-96.4998,2.0,138.0838008,5.388886712,-99999.0,'11133222,11111222,99999999' 
TABS,ioos:station:wmo:42045:1,2006-05-01T04:30:00Z,26.2168,-96.4998,2.0,136.7418015,3.954554336,-99999.0,'11133222,11111222,99999999' 
TABS,ioos:station:wmo:42045:1,2006-05-01T05:00:00Z,26.2168,-96.4998,2.0,145.6370844,5.669426779,-99999.0,'11133222,11111222,99999999' 
TABS,ioos:station:wmo:42045:1,2006-05-01T05:30:00Z,26.2168,-96.4998,2.0,85.36454741,1.484856895,-99999.0,'11133222,11111222,99999999' 
TABS,ioos:station:wmo:42045:1,2006-05-01T06:00:00Z,26.2168,-96.4998,2.0,13.53603518,3.332566578,-99999.0,'11133222,11111222,99999999' 
TABS,ioos:station:wmo:42045:1,2006-05-01T06:30:00Z,26.2168,-96.4998,2.0,12.87518191,3.949291076,-99999.0,'11133222,11111222,99999999' 
TABS,ioos:station:wmo:42045:1,2006-05-01T07:00:00Z,26.2168,-96.4998,2.0,5.226125647,3.293690939,-99999.0,'11133222,11111222,99999999' 
TABS,ioos:station:wmo:42045:1,2006-05-01T07:30:00Z,26.2168,-96.4998,2.0,6.328363109,5.262062333,-99999.0,'11133222,11111222,99999999' 
TABS,ioos:station:wmo:42045:1,2006-05-01T08:00:00Z,26.2168,-96.4998,2.0,2.56758485,11.83187644,-99999.0,'11111222,11111222,99999999' 
TABS,ioos:station:wmo:42045:1,2006-05-01T08:30:00Z,26.2168,-96.4998,2.0,6.132418617,12.16963434,-99999.0,'11111222,11111222,99999999' 
TABS,ioos:station:wmo:42045:1,2006-05-01T09:00:00Z,26.2168,-96.4998,2.0,3.757048381,14.65148457,-99999.0,'11111222,11111222,99999999' 
TABS,ioos:station:wmo:42045:1,2006-05-01T09:30:00Z,26.2168,-96.4998,2.0,12.37376078,15.21338884,-99999.0,'11111222,11111222,99999999' 
TABS,ioos:station:wmo:42045:1,2006-05-01T10:00:00Z,26.2168,-96.4998,2.0,351.5350022,14.26541622,-99999.0,'11111222,11111222,99999999' 
TABS,ioos:station:wmo:42045:1,2006-05-01T10:30:00Z,26.2168,-96.4998,2.0,9.536601691,20.34110371,-99999.0,'11111222,11111222,99999999' 
TABS,ioos:station:wmo:42045:1,2006-05-01T11:00:00Z,26.2168,-96.4998,2.0,17.37679486,9.074122547,-99999.0,'11133222,11111222,99999999' 
TABS,ioos:station:wmo:42045:1,2006-05-01T11:30:00Z,26.2168,-96.4998,2.0,16.37806109,11.10042342,-99999.0,'11111222,11111222,99999999' 
TABS,ioos:station:wmo:42045:1,2006-05-01T12:00:00Z,26.2168,-96.4998,2.0,31.54690138,18.53995685,-99999.0,'11111222,11111222,99999999' 
TABS,ioos:station:wmo:42045:1,2006-05-01T12:30:00Z,26.2168,-96.4998,2.0,30.76657485,18.9232661,-99999.0,'11111222,11111222,99999999' 
TABS,ioos:station:wmo:42045:1,2006-05-01T13:00:00Z,26.2168,-96.4998,2.0,32.89114856,19.88793604,-99999.0,'11111222,11111222,99999999' 
TABS,ioos:station:wmo:42045:1,2006-05-01T13:30:00Z,26.2168,-96.4998,2.0,32.60857881,21.45130532,-99999.0,'11111222,11111222,99999999' 
TABS,ioos:station:wmo:42045:1,2006-05-01T14:00:00Z,26.2168,-96.4998,2.0,28.38743203,23.76800581,-99999.0,'11111222,11111222,99999999' 
TABS,ioos:station:wmo:42045:1,2006-05-01T14:30:00Z,26.2168,-96.4998,2.0,30.4328482,28.31048746,-99999.0,'11111222,11111222,99999999' 
TABS,ioos:station:wmo:42045:1,2006-05-01T15:00:00Z,26.2168,-96.4998,2.0,36.463205,29.29473844,-99999.0,'11111222,11111222,99999999' 
TABS,ioos:station:wmo:42045:1,2006-05-01T15:30:00Z,26.2168,-96.4998,2.0,33.71080544,30.84687991,-99999.0,'11111222,11111222,99999999' 
TABS,ioos:station:wmo:42045:1,2006-05-01T16:00:00Z,26.2168,-96.4998,2.0,36.71970226,28.9680997,-99999.0,'11111222,11111222,99999999' 
TABS,ioos:station:wmo:42045:1,2006-05-01T16:30:00Z,26.2168,-96.4998,2.0,40.79089046,29.19032203,-99999.0,'11111222,11111222,99999999' 
TABS,ioos:station:wmo:42045:1,2006-05-01T17:00:00Z,26.2168,-96.4998,2.0,39.90747404,30.27052692,-99999.0,'11111222,11111222,99999999' 
TABS,ioos:station:wmo:42045:1,2006-05-01T17:30:00Z,26.2168,-96.4998,2.0,40.07638576,30.89436356,-99999.0,'11111222,11111222,99999999' 
TABS,ioos:station:wmo:42045:1,2006-05-01T18:00:00Z,26.2168,-96.4998,2.0,45.82299058,30.03392249,-99999.0,'11111222,11111222,99999999' 
TABS,ioos:station:wmo:42045:1,2006-05-01T18:30:00Z,26.2168,-96.4998,2.0,39.03955751,30.64196469,-99999.0,'11111222,11111222,99999999' 
TABS,ioos:station:wmo:42045:1,2006-05-01T19:00:00Z,26.2168,-96.4998,2.0,39.5686511,30.32963567,-99999.0,'11111222,11111222,99999999' 
TABS,ioos:station:wmo:42045:1,2006-05-01T19:30:00Z,26.2168,-96.4998,2.0,41.37420462,30.0768898,-99999.0,'11111222,11111222,99999999' 
TABS,ioos:station:wmo:42045:1,2006-05-01T20:00:00Z,26.2168,-96.4998,2.0,46.83956359,28.85775632,-99999.0,'11111222,11111222,99999999' 
TABS,ioos:station:wmo:42045:1,2006-05-01T20:30:00Z,26.2168,-96.4998,2.0,47.24556592,28.69521389,-99999.0,'11111222,11111222,99999999' 
TABS,ioos:station:wmo:42045:1,2006-05-01T21:00:00Z,26.2168,-96.4998,2.0,51.56034894,32.12205629,-99999.0,'11111222,11111222,99999999' 
TABS,ioos:station:wmo:42045:1,2006-05-01T21:30:00Z,26.2168,-96.4998,2.0,53.25074531,29.46606523,-99999.0,'11111222,11111222,99999999' 
TABS,ioos:station:wmo:42045:1,2006-05-01T22:00:00Z,26.2168,-96.4998,2.0,57.52426315,28.53186464,-99999.0,'11111222,11111222,99999999' 
TABS,ioos:station:wmo:42045:1,2006-05-01T22:30:00Z,26.2168,-96.4998,2.0,55.56496657,31.35430592,-99999.0,'11111222,11111222,99999999' 
TABS,ioos:station:wmo:42045:1,2006-05-01T23:00:00Z,26.2168,-96.4998,2.0,60.41410419,28.17335798,-99999.0,'11111222,11111222,99999999' 
TABS,ioos:station:wmo:42045:1,2006-05-01T23:30:00Z,26.2168,-96.4998,2.0,66.79861929,26.4490548,-99999.0,'11111222,11111222,99999999' 
TABS,ioos:station:wmo:42045:1,2006-05-02T00:00:00Z,26.2168,-96.4998,2.0,63.41506815,25.69689475,-99999.0,'11111222,11111222,99999999' 
TABS,ioos:station:wmo:42045:1,2006-05-02T00:30:00Z,26.2168,-96.4998,2.0,68.59864566,27.13075008,-99999.0,'11111222,11111222,99999999' 
TABS,ioos:station:wmo:42045:1,2006-05-02T01:00:00Z,26.2168,-96.4998,2.0,69.28520708,27.02724551,-99999.0,'11111222,11111222,99999999' 
TABS,ioos:station:wmo:42045:1,2006-05-02T01:30:00Z,26.2168,-96.4998,2.0,66.90719287,7.827189789,-99999.0,'11133222,11111222,99999999' 
TABS,ioos:station:wmo:42045:1,2006-05-02T02:00:00Z,26.2168,-96.4998,2.0,65.15163699,20.75107949,-99999.0,'11111222,11111222,99999999' 
TABS,ioos:station:wmo:42045:1,2006-05-02T02:30:00Z,26.2168,-96.4998,2.0,66.48980558,19.55313018,-99999.0,'11111222,11111222,99999999' 
TABS,ioos:station:wmo:42045:1,2006-05-02T03:00:00Z,26.2168,-96.4998,2.0,57.87876905,18.33694086,-99999.0,'11111222,11111222,99999999' 
TABS,ioos:station:wmo:42045:1,2006-05-02T03:30:00Z,26.2168,-96.4998,2.0,61.0343126,18.79051889,-99999.0,'11111222,11111222,99999999' 
TABS,ioos:station:wmo:42045:1,2006-05-02T04:00:00Z,26.2168,-96.4998,2.0,69.18411049,15.22369863,-99999.0,'11111222,11111222,99999999' 
TABS,ioos:station:wmo:42045:1,2006-05-02T04:30:00Z,26.2168,-96.4998,2.0,61.65278156,16.68019185,-99999.0,'11111222,11111222,99999999' 
TABS,ioos:station:wmo:42045:1,2006-05-02T05:00:00Z,26.2168,-96.4998,2.0,55.28848538,13.22338081,-99999.0,'11111222,11111222,99999999' 
TABS,ioos:station:wmo:42045:1,2006-05-02T05:30:00Z,26.2168,-96.4998,2.0,52.6631895,12.51441569,-99999.0,'11111222,11111222,99999999' 
TABS,ioos:station:wmo:42045:1,2006-05-02T06:00:00Z,26.2168,-96.4998,2.0,46.58002074,11.02798712,-99999.0,'11111222,11111222,99999999' 
TABS,ioos:station:wmo:42045:1,2006-05-02T06:30:00Z,26.2168,-96.4998,2.0,60.76911445,12.30722146,-99999.0,'11111222,11111222,99999999' 
TABS,ioos:station:wmo:42045:1,2006-05-02T07:00:00Z,26.2168,-96.4998,2.0,34.27252444,13.37173885,-99999.0,'11111222,11111222,99999999' 
TABS,ioos:station:wmo:42045:1,2006-05-02T07:30:00Z,26.2168,-96.4998,2.0,35.79184862,11.79808883,-99999.0,'11111222,11111222,99999999' 
TABS,ioos:station:wmo:42045:1,2006-05-02T08:00:00Z,26.2168,-96.4998,2.0,42.64769574,12.57588565,-99999.0,'11111222,11111222,99999999' 
TABS,ioos:station:wmo:42045:1,2006-05-02T08:30:00Z,26.2168,-96.4998,2.0,36.89833467,12.14200148,-99999.0,'11111222,11111222,99999999' 
TABS,ioos:station:wmo:42045:1,2006-05-02T09:00:00Z,26.2168,-96.4998,2.0,28.53551515,13.39749603,-99999.0,'11111222,11111222,99999999' 
TABS,ioos:station:wmo:42045:1,2006-05-02T09:30:00Z,26.2168,-96.4998,2.0,34.42437628,11.90484355,-99999.0,'11111222,11111222,99999999' 
TABS,ioos:station:wmo:42045:1,2006-05-02T10:00:00Z,26.2168,-96.4998,2.0,31.18298181,12.10960363,-99999.0,'11111222,11111222,99999999' 
TABS,ioos:station:wmo:42045:1,2006-05-02T10:30:00Z,26.2168,-96.4998,2.0,20.50062126,9.65121754,-99999.0,'11133222,11111222,99999999' 
TABS,ioos:station:wmo:42045:1,2006-05-02T11:00:00Z,26.2168,-96.4998,2.0,16.11359101,5.620818446,-99999.0,'11133222,11111222,99999999' 
TABS,ioos:station:wmo:42045:1,2006-05-02T11:30:00Z,26.2168,-96.4998,2.0,26.36274225,6.328111883,-99999.0,'11133222,11111222,99999999' 
TABS,ioos:station:wmo:42045:1,2006-05-02T12:00:00Z,26.2168,-96.4998,2.0,35.17674754,9.408108205,-99999.0,'11133222,11111222,99999999' 
TABS,ioos:station:wmo:42045:1,2006-05-02T12:30:00Z,26.2168,-96.4998,2.0,20.78548384,8.482039849,-99999.0,'11133222,11111222,99999999' 
TABS,ioos:station:wmo:42045:1,2006-05-02T13:00:00Z,26.2168,-96.4998,2.0,34.78698249,8.693744878,-99999.0,'11133222,11111222,99999999' 
TABS,ioos:station:wmo:42045:1,2006-05-02T13:30:00Z,26.2168,-96.4998,2.0,36.85407542,7.186000278,-99999.0,'11133222,11111222,99999999' 
TABS,ioos:station:wmo:42045:1,2006-05-02T14:00:00Z,26.2168,-96.4998,2.0,14.64383069,8.46496899,-99999.0,'11133222,11111222,99999999' 
TABS,ioos:station:wmo:42045:1,2006-05-02T14:30:00Z,26.2168,-96.4998,2.0,26.53182989,7.678658737,-99999.0,'11133222,11111222,99999999' 
TABS,ioos:station:wmo:42045:1,2006-05-02T15:00:00Z,26.2168,-96.4998,2.0,23.00981553,9.158673485,-99999.0,'11133222,11111222,99999999' 
TABS,ioos:station:wmo:42045:1,2006-05-02T15:30:00Z,26.2168,-96.4998,2.0,25.69635238,9.732486835,-99999.0,'11133222,11111222,99999999' 
TABS,ioos:station:wmo:42045:1,2006-05-02T16:00:00Z,26.2168,-96.4998,2.0,26.05840767,9.606523825,-99999.0,'11133222,11111222,99999999' 
TABS,ioos:station:wmo:42045:1,2006-05-02T16:30:00Z,26.2168,-96.4998,2.0,32.15516236,10.14633431,-99999.0,'11111222,11111222,99999999' 
TABS,ioos:station:wmo:42045:1,2006-05-02T17:00:00Z,26.2168,-96.4998,2.0,9.62639403,10.34567059,-99999.0,'11111222,11111222,99999999' 
TABS,ioos:station:wmo:42045:1,2006-05-02T17:30:00Z,26.2168,-96.4998,2.0,356.4238844,3.526868299,-99999.0,'11133222,11111222,99999999' 
TABS,ioos:station:wmo:42045:1,2006-05-02T18:00:00Z,26.2168,-96.4998,2.0,15.45218497,6.380634765,-99999.0,'11133222,11111222,99999999' 
TABS,ioos:station:wmo:42045:1,2006-05-02T18:30:00Z,26.2168,-96.4998,2.0,20.04781052,6.067651935,-99999.0,'11133222,11111222,99999999' 
TABS,ioos:station:wmo:42045:1,2006-05-02T19:00:00Z,26.2168,-96.4998,2.0,32.52106261,7.068352,-99999.0,'11133222,11111222,99999999' 
TABS,ioos:station:wmo:42045:1,2006-05-02T19:30:00Z,26.2168,-96.4998,2.0,41.36856516,9.154201221,-99999.0,'11133222,11111222,99999999' 
TABS,ioos:station:wmo:42045:1,2006-05-02T20:00:00Z,26.2168,-96.4998,2.0,49.67645406,6.938602165,-99999.0,'11133222,11111222,99999999' 
TABS,ioos:station:wmo:42045:1,2006-05-02T20:30:00Z,26.2168,-96.4998,2.0,62.53750245,8.565191183,-99999.0,'11133222,11111222,99999999' 
TABS,ioos:station:wmo:42045:1,2006-05-02T21:00:00Z,26.2168,-96.4998,2.0,60.96484886,8.612392234,-99999.0,'11133222,11111222,99999999' 
TABS,ioos:station:wmo:42045:1,2006-05-02T21:30:00Z,26.2168,-96.4998,2.0,76.07650195,3.698675439,-99999.0,'11133222,11111222,99999999' 
TABS,ioos:station:wmo:42045:1,2006-05-02T22:00:00Z,26.2168,-96.4998,2.0,90.0,6.12,-99999.0,'11133222,11111222,99999999' 
TABS,ioos:station:wmo:42045:1,2006-05-02T22:30:00Z,26.2168,-96.4998,2.0,93.83067174,6.885383069,-99999.0,'11133222,11111222,99999999' 
TABS,ioos:station:wmo:42045:1,2006-05-02T23:00:00Z,26.2168,-96.4998,2.0,162.5957193,11.60111202,-99999.0,'11111222,11111222,99999999' 
TABS,ioos:station:wmo:42045:1,2006-05-02T23:30:00Z,26.2168,-96.4998,2.0,113.6344602,6.38561665,-99999.0,'11133222,11111222,99999999' 
TABS,ioos:station:wmo:42045:1,2006-05-03T00:00:00Z,26.2168,-96.4998,2.0,90.61240044,8.420480984,-99999.0,'11133222,11111222,99999999' 
TABS,ioos:station:wmo:42045:1,2006-05-03T00:30:00Z,26.2168,-96.4998,2.0,242.465809,5.819080683,-99999.0,'11133222,11111222,99999999' 
TABS,ioos:station:wmo:42045:1,2006-05-03T01:00:00Z,26.2168,-96.4998,2.0,247.2486559,2.353083084,-99999.0,'11133222,11111222,99999999' 
TABS,ioos:station:wmo:42045:1,2006-05-03T01:30:00Z,26.2168,-96.4998,2.0,202.2487612,0.950789146,-99999.0,'11133222,11111222,99999999' 
TABS,ioos:station:wmo:42045:1,2006-05-03T02:00:00Z,26.2168,-96.4998,2.0,184.5737001,2.257188517,-99999.0,'11133222,11111222,99999999' 
TABS,ioos:station:wmo:42045:1,2006-05-03T02:30:00Z,26.2168,-96.4998,2.0,91.64398565,6.622726025,-99999.0,'11133222,11111222,99999999' 
TABS,ioos:station:wmo:42045:1,2006-05-03T03:00:00Z,26.2168,-96.4998,2.0,149.9175074,1.89528362,-99999.0,'11133222,11111222,99999999' 
TABS,ioos:station:wmo:42045:1,2006-05-03T03:30:00Z,26.2168,-96.4998,2.0,95.03377519,1.93747258,-99999.0,'11133222,11111222,99999999' 
TABS,ioos:station:wmo:42045:1,2006-05-03T04:00:00Z,26.2168,-96.4998,2.0,193.3513947,3.24778386,-99999.0,'11133222,11111222,99999999' 
TABS,ioos:station:wmo:42045:1,2006-05-03T04:30:00Z,26.2168,-96.4998,2.0,198.2168421,1.663370073,-99999.0,'11133222,11111222,99999999' 
TABS,ioos:station:wmo:42045:1,2006-05-03T05:00:00Z,26.2168,-96.4998,2.0,187.5944152,3.17787665,-99999.0,'11133222,11111222,99999999' 
TABS,ioos:station:wmo:42045:1,2006-05-03T05:30:00Z,26.2168,-96.4998,2.0,208.1513584,4.684122116,-99999.0,'11133222,11111222,99999999' 
TABS,ioos:station:wmo:42045:1,2006-05-03T06:00:00Z,26.2168,-96.4998,2.0,224.9996843,4.87903679,-99999.0,'11133222,11111222,99999999' 
TABS,ioos:station:wmo:42045:1,2006-05-03T06:30:00Z,26.2168,-96.4998,2.0,235.4766365,6.105120801,-99999.0,'11133222,11111222,99999999' 
TABS,ioos:station:wmo:42045:1,2006-05-03T07:00:00Z,26.2168,-96.4998,2.0,239.1514568,4.251458573,-99999.0,'11133222,11111222,99999999' 
TABS,ioos:station:wmo:42045:1,2006-05-03T07:30:00Z,26.2168,-96.4998,2.0,244.5594652,6.37849512,-99999.0,'11133222,11111222,99999999' 
TABS,ioos:station:wmo:42045:1,2006-05-03T08:00:00Z,26.2168,-96.4998,2.0,249.2163255,5.016423028,-99999.0,'11133222,11111222,99999999' 
TABS,ioos:station:wmo:42045:1,2006-05-03T08:30:00Z,26.2168,-96.4998,2.0,278.4873316,8.402005713,-99999.0,'11133222,11111222,99999999' 
TABS,ioos:station:wmo:42045:1,2006-05-03T09:00:00Z,26.2168,-96.4998,2.0,306.3584007,7.388294797,-99999.0,'11133222,11111222,99999999' 
TABS,ioos:station:wmo:42045:1,2006-05-03T09:30:00Z,26.2168,-96.4998,2.0,283.2925741,9.525177164,-99999.0,'11133222,11111222,99999999' 
TABS,ioos:station:wmo:42045:1,2006-05-03T10:00:00Z,26.2168,-96.4998,2.0,291.2414072,6.26566038,-99999.0,'11133222,11111222,99999999' 
TABS,ioos:station:wmo:42045:1,2006-05-03T10:30:00Z,26.2168,-96.4998,2.0,313.8805278,9.045623251,-99999.0,'11133222,11111222,99999999' 
TABS,ioos:station:wmo:42045:1,2006-05-03T11:00:00Z,26.2168,-96.4998,2.0,331.0602654,5.82772683,-99999.0,'11133222,11111222,99999999' 
TABS,ioos:station:wmo:42045:1,2006-05-03T11:30:00Z,26.2168,-96.4998,2.0,324.8386648,4.427967931,-99999.0,'11133222,11111222,99999999' 
TABS,ioos:station:wmo:42045:1,2006-05-03T12:00:00Z,26.2168,-96.4998,2.0,324.3224908,8.555851799,-99999.0,'11133222,11111222,99999999' 
TABS,ioos:station:wmo:42045:1,2006-05-03T12:30:00Z,26.2168,-96.4998,2.0,331.2217711,10.88435575,-99999.0,'11111222,11111222,99999999' 
TABS,ioos:station:wmo:42045:1,2006-05-03T13:00:00Z,26.2168,-96.4998,2.0,348.9760923,10.61589845,-99999.0,'11111222,11111222,99999999' 
TABS,ioos:station:wmo:42045:1,2006-05-03T13:30:00Z,26.2168,-96.4998,2.0,352.5263831,12.22384964,-99999.0,'11111222,11111222,99999999' 
TABS,ioos:station:wmo:42045:1,2006-05-03T14:00:00Z,26.2168,-96.4998,2.0,358.218254,13.50653175,-99999.0,'11111222,11111222,99999999' 
TABS,ioos:station:wmo:42045:1,2006-05-03T14:30:00Z,26.2168,-96.4998,2.0,0.408809562,12.62032092,-99999.0,'11111222,11111222,99999999' 
TABS,ioos:station:wmo:42045:1,2006-05-03T15:00:00Z,26.2168,-96.4998,2.0,359.1709893,7.600796011,-99999.0,'11133222,11144222,99999999' 
TABS,ioos:station:wmo:42045:1,2006-05-03T15:30:00Z,26.2168,-96.4998,2.0,1.32393801,12.55335015,-99999.0,'11111222,11111222,99999999' 
TABS,ioos:station:wmo:42045:1,2006-05-03T16:00:00Z,26.2168,-96.4998,2.0,3.263747322,11.76908663,-99999.0,'11111222,11111222,99999999' 
TABS,ioos:station:wmo:42045:1,2006-05-03T16:30:00Z,26.2168,-96.4998,2.0,10.81302663,12.20672765,-99999.0,'11111222,11111222,99999999' 
TABS,ioos:station:wmo:42045:1,2006-05-03T17:00:00Z,26.2168,-96.4998,2.0,358.3040242,8.783848815,-99999.0,'11133222,11111222,99999999' 
TABS,ioos:station:wmo:42045:1,2006-05-03T17:30:00Z,26.2168,-96.4998,2.0,349.8430569,8.675972568,-99999.0,'11133222,11111222,99999999' 
TABS,ioos:station:wmo:42045:1,2006-05-03T18:00:00Z,26.2168,-96.4998,2.0,354.4878306,10.93054893,-99999.0,'11111222,11111222,99999999' 
TABS,ioos:station:wmo:42045:1,2006-05-03T18:30:00Z,26.2168,-96.4998,2.0,350.6892285,8.71482071,-99999.0,'11133222,11111222,99999999' 
TABS,ioos:station:wmo:42045:1,2006-05-03T19:00:00Z,26.2168,-96.4998,2.0,353.8774875,8.43813368,-99999.0,'11133222,11111222,99999999' 
TABS,ioos:station:wmo:42045:1,2006-05-03T19:30:00Z,26.2168,-96.4998,2.0,341.4862218,9.164289389,-99999.0,'11133222,11111222,99999999' 
TABS,ioos:station:wmo:42045:1,2006-05-03T20:00:00Z,26.2168,-96.4998,2.0,348.4600939,8.297740656,-99999.0,'11133222,11111222,99999999' 
TABS,ioos:station:wmo:42045:1,2006-05-03T20:30:00Z,26.2168,-96.4998,2.0,46.75592563,8.53878797,-99999.0,'11133222,11111222,99999999' 
TABS,ioos:station:wmo:42045:1,2006-05-03T21:00:00Z,26.2168,-96.4998,2.0,46.2943839,14.40036805,-99999.0,'11111222,11111222,99999999' 
TABS,ioos:station:wmo:42045:1,2006-05-03T21:30:00Z,26.2168,-96.4998,2.0,59.5216764,13.56430979,-99999.0,'11111222,11111222,99999999' 
TABS,ioos:station:wmo:42045:1,2006-05-03T22:00:00Z,26.2168,-96.4998,2.0,81.80979533,6.738731335,-99999.0,'11133222,11111222,99999999' 
TABS,ioos:station:wmo:42045:1,2006-05-03T22:30:00Z,26.2168,-96.4998,2.0,81.04482535,8.544150045,-99999.0,'11133222,11111222,99999999' 
TABS,ioos:station:wmo:42045:1,2006-05-03T23:00:00Z,26.2168,-96.4998,2.0,103.0481537,8.016994449,-99999.0,'11133222,11111222,99999999' 
TABS,ioos:station:wmo:42045:1,2006-05-03T23:30:00Z,26.2168,-96.4998,2.0,92.66862833,7.087686505,-99999.0,'11133222,11111222,99999999' 
TABS,ioos:station:wmo:42045:1,2006-05-04T00:00:00Z,26.2168,-96.4998,2.0,70.79087593,7.020897379,-99999.0,'11133222,11111222,99999999' 
TABS,ioos:station:wmo:42045:1,2006-05-04T00:30:00Z,26.2168,-96.4998,2.0,90.51990992,5.510226856,-99999.0,'11133222,11111222,99999999' 
TABS,ioos:station:wmo:42045:1,2006-05-04T01:00:00Z,26.2168,-96.4998,2.0,123.4936595,4.856428729,-99999.0,'11133222,11111222,99999999' 
TABS,ioos:station:wmo:42045:1,2006-05-04T01:30:00Z,26.2168,-96.4998,2.0,137.5260058,0.962600644,-99999.0,'11133222,11111222,99999999' 
TABS,ioos:station:wmo:42045:1,2006-05-04T02:00:00Z,26.2168,-96.4998,2.0,206.6905647,4.074125673,-99999.0,'11133222,11111222,99999999' 
TABS,ioos:station:wmo:42045:1,2006-05-04T02:30:00Z,26.2168,-96.4998,2.0,230.834855,7.441968826,-99999.0,'11133222,11111222,99999999' 
TABS,ioos:station:wmo:42045:1,2006-05-04T03:00:00Z,26.2168,-96.4998,2.0,232.3630834,8.220735977,-99999.0,'11133222,11111222,99999999' 
TABS,ioos:station:wmo:42045:1,2006-05-04T03:30:00Z,26.2168,-96.4998,2.0,259.8151522,8.087428516,-99999.0,'11133222,11111222,99999999' 
TABS,ioos:station:wmo:42045:1,2006-05-04T04:00:00Z,26.2168,-96.4998,2.0,272.9433773,6.037963233,-99999.0,'11133222,11111222,99999999' 
TABS,ioos:station:wmo:42045:1,2006-05-04T04:30:00Z,26.2168,-96.4998,2.0,277.9438742,8.683317338,-99999.0,'11133222,11111222,99999999' 
TABS,ioos:station:wmo:42045:1,2006-05-04T05:00:00Z,26.2168,-96.4998,2.0,275.5471716,7.655847438,-99999.0,'11133222,11111222,99999999' 
TABS,ioos:station:wmo:42045:1,2006-05-04T05:30:00Z,26.2168,-96.4998,2.0,281.3570734,7.211192689,-99999.0,'11133222,11111222,99999999' 
TABS,ioos:station:wmo:42045:1,2006-05-04T06:00:00Z,26.2168,-96.4998,2.0,270.9379024,5.500736314,-99999.0,'11133222,11111222,99999999' 
TABS,ioos:station:wmo:42045:1,2006-05-04T06:30:00Z,26.2168,-96.4998,2.0,276.8676349,7.443399761,-99999.0,'11133222,11111222,99999999' 
TABS,ioos:station:wmo:42045:1,2006-05-04T07:00:00Z,26.2168,-96.4998,2.0,314.3484338,5.593576673,-99999.0,'11133222,11111222,99999999' 
TABS,ioos:station:wmo:42045:1,2006-05-04T07:30:00Z,26.2168,-96.4998,2.0,295.107175,8.083767686,-99999.0,'11133222,11111222,99999999' 
TABS,ioos:station:wmo:42045:1,2006-05-04T08:00:00Z,26.2168,-96.4998,2.0,291.4894337,7.834602734,-99999.0,'11133222,11111222,99999999' 
TABS,ioos:station:wmo:42045:1,2006-05-04T08:30:00Z,26.2168,-96.4998,2.0,304.5959386,9.827741348,-99999.0,'11133222,11111222,99999999' 
TABS,ioos:station:wmo:42045:1,2006-05-04T09:00:00Z,26.2168,-96.4998,2.0,295.5627689,9.200592372,-99999.0,'11133222,11111222,99999999' 
TABS,ioos:station:wmo:42045:1,2006-05-04T09:30:00Z,26.2168,-96.4998,2.0,304.2428061,9.205677596,-99999.0,'11133222,11111222,99999999' 
TABS,ioos:station:wmo:42045:1,2006-05-04T10:00:00Z,26.2168,-96.4998,2.0,320.8139058,12.91455381,-99999.0,'11111222,11111222,99999999' 
TABS,ioos:station:wmo:42045:1,2006-05-04T10:30:00Z,26.2168,-96.4998,2.0,317.0225729,10.62028719,-99999.0,'11111222,11111222,99999999' 
TABS,ioos:station:wmo:42045:1,2006-05-04T11:00:00Z,26.2168,-96.4998,2.0,325.2880841,6.37451959,-99999.0,'11133222,11111222,99999999' 
TABS,ioos:station:wmo:42045:1,2006-05-04T11:30:00Z,26.2168,-96.4998,2.0,347.4820384,5.859291766,-99999.0,'11133222,11111222,99999999' 
TABS,ioos:station:wmo:42045:1,2006-05-04T12:00:00Z,26.2168,-96.4998,2.0,357.1289921,12.97628992,-99999.0,'11111222,11111222,99999999' 
TABS,ioos:station:wmo:42045:1,2006-05-04T12:30:00Z,26.2168,-96.4998,2.0,357.3127955,14.71618497,-99999.0,'11111222,11111222,99999999' 
TABS,ioos:station:wmo:42045:1,2006-05-04T13:00:00Z,26.2168,-96.4998,2.0,9.992740382,19.36374189,-99999.0,'11111222,11111222,99999999' 
TABS,ioos:station:wmo:42045:1,2006-05-04T13:30:00Z,26.2168,-96.4998,2.0,14.97774615,19.19200875,-99999.0,'11111222,11111222,99999999' 
TABS,ioos:station:wmo:42045:1,2006-05-04T14:00:00Z,26.2168,-96.4998,2.0,14.18603635,19.50478147,-99999.0,'11111222,11111222,99999999' 
TABS,ioos:station:wmo:42045:1,2006-05-04T14:30:00Z,26.2168,-96.4998,2.0,12.87233775,16.83302112,-99999.0,'11111222,11111222,99999999' 
TABS,ioos:station:wmo:42045:1,2006-05-04T15:00:00Z,26.2168,-96.4998,2.0,22.22081119,19.54124356,-99999.0,'11111222,11111222,99999999' 
TABS,ioos:station:wmo:42045:1,2006-05-04T16:00:00Z,26.2168,-96.4998,2.0,24.14658665,20.24103011,-99999.0,'11111222,11111222,99999999' 
TABS,ioos:station:wmo:42045:1,2006-05-04T16:30:00Z,26.2168,-96.4998,2.0,24.69726658,21.54030873,-99999.0,'11111222,11111222,99999999' 